Williams, AZ

9:08 AM MST on February 10, 2016 (GMT -0700)
Williams

Weather History for KCMR - May, 2013

Change the Weather History Date:

Saturday, May 18, 2013

  Actual Average (KFLG) Record (KFLG)
Temperature  
Mean Temperature 50 °F 52 °F  
Max Temperature 66 °F 69 °F 82 °F (1970)
Min Temperature 35 °F 35 °F 21 °F (1977)
Degree Days  
Heating Degree Days 14 13  
Month to date heating degree days 271  
Since 1 July heating degree days 6627  
Cooling Degree Days 0 0  
Month to date cooling degree days 0  
Year to date cooling degree days 0  
Moisture  
Dew Point 26 °F    
Average Humidity 37    
Maximum Humidity 65    
Minimum Humidity 19    
Precipitation  
Precipitation 0.00 in 0.02 in 0.65 in (2011)
Month to date precipitation 0.36  
Year to date precipitation 7.84  
Snow  
Snow 0.00 in 0.00 in 1.60 in (2011)
Month to date snowfall 0.6  
Since 1 July snowfall 101.6  
Snow Depth -    
Sea Level Pressure  
Sea Level Pressure 30.15 in    
Wind  
Wind Speed 8 mph (SSW)    
Max Wind Speed 18 mph    
Max Gust Speed 26 mph    
Visibility 10 miles    
Events      
T = Trace of Precipitation, MM = Missing Value Source: NWS Daily Summary

Daily Weather History Graph

Daily Weather History Graph

Search for Another Location

Airport or City:

Trip Planner

Search our weather history database for the weather conditions in past years. The results will help you decide how hot, cold, wet, or windy it might be!

Date:

Astronomy

May. 18, 2013 Rise Set
Actual Time 5:22 AM MST 7:28 PM MST
Civil Twilight 4:53 AM MST 7:57 PM MST
Nautical Twilight 4:18 AM MST 8:32 PM MST
Astronomical Twilight 3:41 AM MST 9:09 PM MST
Moon 12:50 PM MST (5/18) 1:01 AM MST (5/18)
Length of Visible Light 15h 03m
Length of Day
14h 06m
First Quarter, 56% of the Moon is Illuminated
May 18
First Quarter
May 24
Full
May 31
Last Quarter
Jun 8
New
Jun 16
First Quarter

Hourly Weather History & Observations

Time (MST) Temp. Windchill Dew Point Humidity Pressure Visibility Wind Dir Wind Speed Gust Speed Precip Events Conditions
12:15 AM 50.0 °F - 24.8 °F 37% 30.16 in 10.0 mi SSW 3.5 mph - N/A   Clear
12:35 AM 48.2 °F - 24.8 °F 40% 30.16 in 10.0 mi South 5.8 mph - N/A   Clear
12:55 AM 44.6 °F 42.2 °F 24.8 °F 46% 30.16 in 10.0 mi South 4.6 mph - N/A   Clear
1:15 AM 42.8 °F 41.1 °F 24.8 °F 49% 30.16 in 10.0 mi SSE 3.5 mph - N/A   Clear
1:55 AM 41.0 °F 38.0 °F 23.0 °F 49% 30.15 in 10.0 mi SE 4.6 mph - N/A   Clear
2:15 AM 39.2 °F 33.0 °F 23.0 °F 52% 30.15 in 10.0 mi SSE 9.2 mph - N/A   Clear
2:35 AM 37.4 °F 32.8 °F 23.0 °F 56% 30.14 in 10.0 mi SSE 5.8 mph - N/A   Clear
2:55 AM 37.4 °F 30.8 °F 24.8 °F 60% 30.14 in 10.0 mi SSE 9.2 mph - N/A   Clear
3:15 AM 37.4 °F 32.1 °F 24.8 °F 60% 30.14 in 10.0 mi SSE 6.9 mph - N/A   Clear
3:35 AM 37.4 °F 32.1 °F 24.8 °F 60% 30.14 in 10.0 mi SSE 6.9 mph - N/A   Clear
3:55 AM 39.2 °F 35.0 °F 24.8 °F 56% 30.15 in 10.0 mi SSE 5.8 mph - N/A   Clear
4:15 AM 37.4 °F 32.8 °F 24.8 °F 60% 30.15 in 10.0 mi SSE 5.8 mph - N/A   Clear
4:35 AM 35.6 °F 29.2 °F 24.8 °F 65% 30.15 in 10.0 mi SSE 8.1 mph - N/A   Clear
4:55 AM 35.6 °F 28.6 °F 24.8 °F 65% 30.15 in 10.0 mi SSE 9.2 mph - N/A   Clear
5:15 AM 37.4 °F 31.4 °F 24.8 °F 60% 30.15 in 10.0 mi SSE 8.1 mph - N/A   Clear
5:35 AM 37.4 °F 31.4 °F 26.6 °F 65% 30.16 in 10.0 mi SSE 8.1 mph - N/A   Clear
5:55 AM 37.4 °F 32.1 °F 26.6 °F 65% 30.16 in 10.0 mi SSE 6.9 mph - N/A   Clear
6:15 AM 37.4 °F 31.4 °F 26.6 °F 65% 30.16 in 10.0 mi SSE 8.1 mph - N/A   Clear
6:35 AM 44.6 °F 42.2 °F 28.4 °F 53% 30.17 in 10.0 mi SSE 4.6 mph - N/A   Clear
6:55 AM 46.4 °F 44.3 °F 28.4 °F 50% 30.18 in 10.0 mi SE 4.6 mph - N/A   Clear
7:15 AM 50.0 °F - 32.0 °F 50% 30.17 in 10.0 mi SE 4.6 mph - N/A   Clear
7:35 AM 55.4 °F - 30.2 °F 38% 30.18 in 10.0 mi SSW 6.9 mph - N/A   Clear
7:55 AM 55.4 °F - 32.0 °F 41% 30.18 in 10.0 mi SW 10.4 mph - N/A   Clear
8:15 AM 57.2 °F - 32.0 °F 38% 30.18 in 10.0 mi SSW 11.5 mph - N/A   Clear
8:35 AM 59.0 °F - 32.0 °F 36% 30.18 in 10.0 mi SSW 9.2 mph - N/A   Clear
8:55 AM 59.0 °F - 32.0 °F 36% 30.18 in 10.0 mi WSW 13.8 mph 19.6 mph N/A   Clear
9:15 AM 59.0 °F - 30.2 °F 34% 30.18 in 10.0 mi SW 12.7 mph 18.4 mph N/A   Clear
9:35 AM 59.0 °F - 28.4 °F 31% 30.17 in 10.0 mi WSW 13.8 mph 19.6 mph N/A   Clear
9:55 AM 59.0 °F - 28.4 °F 31% 30.17 in 10.0 mi SW 9.2 mph 18.4 mph N/A   Clear
10:15 AM 59.0 °F - 30.2 °F 34% 30.17 in 10.0 mi SSW 12.7 mph 20.7 mph N/A   Partly Cloudy
10:35 AM 62.6 °F - 30.2 °F 30% 30.17 in 10.0 mi SW 10.4 mph 19.6 mph N/A   Partly Cloudy
10:55 AM 62.6 °F - 30.2 °F 30% 30.17 in 10.0 mi WSW 10.4 mph 18.4 mph N/A   Partly Cloudy
11:15 AM 64.4 °F - 30.2 °F 28% 30.17 in 10.0 mi WSW 6.9 mph 16.1 mph N/A   Partly Cloudy
11:35 AM 64.4 °F - 24.8 °F 22% 30.17 in 10.0 mi WSW 11.5 mph 19.6 mph N/A   Partly Cloudy
11:55 AM 64.4 °F - 24.8 °F 22% 30.16 in 10.0 mi WSW 11.5 mph - N/A   Clear
12:15 PM 66.2 °F - 26.6 °F 23% 30.16 in 10.0 mi WSW 16.1 mph 21.9 mph N/A   Clear
12:35 PM 64.4 °F - 26.6 °F 24% 30.15 in 10.0 mi SSW 11.5 mph 23.0 mph N/A   Clear
12:55 PM 66.2 °F - 24.8 °F 21% 30.15 in 10.0 mi SW 13.8 mph 20.7 mph N/A   Partly Cloudy
1:15 PM 64.4 °F - 24.8 °F 22% 30.14 in 10.0 mi South 10.4 mph 20.7 mph N/A   Scattered Clouds
1:35 PM 66.2 °F - 23.0 °F 19% 30.14 in 10.0 mi WSW 15.0 mph 20.7 mph N/A   Partly Cloudy
1:55 PM 64.4 °F - 21.2 °F 19% 30.14 in 10.0 mi WSW 17.3 mph 23.0 mph N/A   Mostly Cloudy
2:15 PM 64.4 °F - 23.0 °F 21% 30.13 in 10.0 mi SW 10.4 mph 21.9 mph N/A   Scattered Clouds
2:35 PM 66.2 °F - 24.8 °F 21% 30.14 in 10.0 mi SSW 13.8 mph 18.4 mph N/A   Scattered Clouds
2:55 PM 64.4 °F - 24.8 °F 22% 30.14 in 10.0 mi WSW 15.0 mph 24.2 mph N/A   Scattered Clouds
3:15 PM 66.2 °F - 24.8 °F 21% 30.13 in 10.0 mi SW 11.5 mph 17.3 mph N/A   Mostly Cloudy
3:35 PM 64.4 °F - 24.8 °F 22% 30.12 in 10.0 mi WSW 15.0 mph 19.6 mph N/A   Mostly Cloudy
3:55 PM 64.4 °F - 24.8 °F 22% 30.12 in 10.0 mi WSW 8.1 mph - N/A   Scattered Clouds
4:15 PM 64.4 °F - 26.6 °F 24% 30.12 in 10.0 mi SW 18.4 mph 26.5 mph N/A   Partly Cloudy
4:35 PM 64.4 °F - 26.6 °F 24% 30.12 in 10.0 mi SW 6.9 mph - N/A   Clear
4:55 PM 64.4 °F - 24.8 °F 22% 30.12 in 10.0 mi SSW 10.4 mph 18.4 mph N/A   Scattered Clouds
5:15 PM 64.4 °F - 24.8 °F 22% 30.11 in 10.0 mi West 10.4 mph - N/A   Mostly Cloudy
5:35 PM 62.6 °F - 28.4 °F 27% 30.12 in 10.0 mi NNW 9.2 mph - N/A   Scattered Clouds
5:55 PM 62.6 °F - 28.4 °F 27% 30.12 in 10.0 mi NW 9.2 mph - N/A   Partly Cloudy
6:15 PM 64.4 °F - 28.4 °F 26% 30.12 in 10.0 mi WNW 9.2 mph - N/A   Scattered Clouds
6:35 PM 62.6 °F - 28.4 °F 27% 30.12 in 10.0 mi WNW 8.1 mph - N/A   Partly Cloudy
6:55 PM 62.6 °F - 28.4 °F 27% 30.13 in 10.0 mi NW 6.9 mph - N/A   Clear
7:15 PM 62.6 °F - 26.6 °F 26% 30.13 in 10.0 mi West 12.7 mph - N/A   Partly Cloudy
7:35 PM 60.8 °F - 24.8 °F 25% 30.13 in 10.0 mi West 11.5 mph 16.1 mph N/A   Scattered Clouds
7:55 PM 59.0 °F - 24.8 °F 27% 30.14 in 10.0 mi West 6.9 mph - N/A   Clear
8:15 PM 57.2 °F - 26.6 °F 31% 30.14 in 10.0 mi West 6.9 mph - N/A   Clear
8:35 PM 55.4 °F - 24.8 °F 31% 30.15 in 10.0 mi West 5.8 mph - N/A   Clear
8:55 PM 55.4 °F - 24.8 °F 31% 30.15 in 10.0 mi West 6.9 mph - N/A   Partly Cloudy
9:15 PM 53.6 °F - 24.8 °F 33% 30.16 in 10.0 mi WSW 4.6 mph - N/A   Partly Cloudy
9:35 PM 53.6 °F - 23.0 °F 30% 30.17 in 10.0 mi West 3.5 mph - N/A   Clear
9:55 PM 51.8 °F - 23.0 °F 33% 30.17 in 10.0 mi SW 3.5 mph - N/A   Clear
10:15 PM 50.0 °F - 23.0 °F 35% 30.17 in 10.0 mi SSW 5.8 mph - N/A   Clear
10:35 PM 50.0 °F - 23.0 °F 35% 30.17 in 10.0 mi SW 4.6 mph - N/A   Clear
10:55 PM 50.0 °F - 24.8 °F 37% 30.17 in 10.0 mi SSW 5.8 mph - N/A   Clear
11:15 PM 50.0 °F - 26.6 °F 40% 30.17 in 10.0 mi SSW 4.6 mph - N/A   Clear
11:35 PM 46.4 °F 44.3 °F 26.6 °F 46% 30.17 in 10.0 mi SE 4.6 mph - N/A   Clear
11:55 PM 44.6 °F 42.2 °F 26.6 °F 49% 30.17 in 10.0 mi SSW 4.6 mph - N/A   Clear